This is the latest recevied weather packets stored in our database for station/object VK4TOM-13. If no packets are shown the sender has not sent any weather packets the latest 10 day(s).
| Time | Temp. | Humidity | Pressure | Rain* | Wind** | Luminosity | Snow |
|---|---|---|---|---|---|---|---|
| 1778140265 | 27.22° C | 70% | 1014.4 hPa | 0 mm | - | - | - |
| 1778139664 | 27.78° C | 70% | 1014.3 hPa | 0 mm | - | - | - |
| 1778139063 | 28.33° C | 70% | 1014.2 hPa | 0 mm | - | - | - |
| 1778138462 | 28.33° C | 70% | 1014.1 hPa | 0 mm | - | - | - |
| 1778137860 | 28.89° C | 70% | 1013.9 hPa | 0 mm | - | - | - |
| 1778137259 | 28.89° C | 70% | 1013.7 hPa | 0 mm | - | - | - |
| 1778136659 | 29.44° C | 70% | 1013.8 hPa | 0 mm | - | - | - |
| 1778136057 | 29.44° C | 70% | 1013.5 hPa | 0 mm | - | - | - |
| 1778135456 | 29.44° C | 70% | 1013.3 hPa | 0 mm | - | - | - |
| 1778134855 | 29.44° C | 70% | 1013.3 hPa | 0 mm | - | - | - |
| 1778134254 | 30° C | 70% | 1013.3 hPa | 0 mm | - | - | - |
| 1778133653 | 30° C | 70% | 1013.3 hPa | 0 mm | - | - | - |
| 1778133052 | 30° C | 70% | 1013.2 hPa | 0 mm | - | - | - |
| 1778132451 | 30° C | 70% | 1013.2 hPa | 0 mm | - | - | - |
| 1778131850 | 30.56° C | 70% | 1013.1 hPa | 0 mm | - | - | - |
| 1778131249 | 31.11° C | 70% | 1013.3 hPa | 0 mm | - | - | - |
| 1778130647 | 31.67° C | 70% | 1013.2 hPa | 0 mm | - | - | - |
| 1778130047 | 31.67° C | 70% | 1013.1 hPa | 0 mm | - | - | - |
| 1778129446 | 31.67° C | 70% | 1013.2 hPa | 0 mm | - | - | - |
| 1778128845 | 31.67° C | 70% | 1013.2 hPa | 0 mm | - | - | - |
| 1778128243 | 31.67° C | 70% | 1013.3 hPa | 0 mm | - | - | - |
| 1778127642 | 32.22° C | 70% | 1013.2 hPa | 0 mm | - | - | - |
| 1778127041 | 32.22° C | 70% | 1013.3 hPa | 0 mm | - | - | - |
| 1778126440 | 31.67° C | 70% | 1013.5 hPa | 0 mm | - | - | - |
| 1778125839 | 31.67° C | 70% | 1013.5 hPa | 0 mm | - | - | - |
* Rain since midnight (hover to see other rain measurements)
** Current wind speed in m/s (hover to see current wind gust speed)